W3EJE-13 Weather Reports


Display with metric or nautical units.
time (UTC)temp
F
wind
direction
speed
MPH
gust
MPH
rain 1hr
in
rain 24hr
in
rain mn
in
humidity
%
barometer
mb
20260831002320 73 243 0.0 0.0 0.00 0.00 0.00 90 1022.8
20260831001816 73 244 0.0 0.0 0.00 0.00 0.00 90 1022.7
20260831001311 73 240 0.0 0.0 0.00 0.00 0.00 89 1022.8
20260831000809 74 231 0.0 0.0 0.00 0.00 0.00 89 1022.8
20260831000310 74 231 0.0 0.0 0.00 0.00 0.00 89 1022.5
20260830235807 74 227 0.0 0.0 0.00 0.00 0.00 89 1022.4
20260830235305 74 233 0.0 0.0 0.00 0.00 0.00 89 1022.4
20260830234757 75 233 0.0 0.0 0.00 0.00 0.00 86 1022.2
20260830234253 75 233 0.0 0.0 0.00 0.00 0.00 85 1022.6
20260830233748 76 231 0.0 0.0 0.00 0.00 0.00 84 1022.1
20260830233244 76 241 0.0 0.0 0.00 0.00 0.00 84 1022.2
20260830232739 77 242 0.0 0.0 0.00 0.00 0.00 84 1022.4
20260830232235 77 243 0.0 0.0 0.00 0.00 0.00 82 1022.3
20260830231731 78 246 0.0 0.0 0.00 0.00 0.00 81 1022.5
20260830231231 78 245 0.0 0.0 0.00 0.00 0.00 78 1022.5
20260830230726 79 248 1.0 1.0 0.00 0.00 0.00 76 1022.3
20260830230221 79 256 2.0 2.0 0.00 0.00 0.00 76 1022.4
20260830225720 79 248 1.0 1.0 0.00 0.00 0.00 77 1022.2
20260830225215 79 245 1.0 2.0 0.00 0.00 0.00 75 1022.4
20260830224714 80 263 4.0 5.0 0.00 0.00 0.00 72 1022.5
20260830224210 80 290 2.0 3.0 0.00 0.00 0.00 74 1022.3
20260830223707 80 281 3.0 3.0 0.00 0.00 0.00 72 1023.0
20260830223202 80 259 2.0 2.0 0.00 0.00 0.00 72 1022.7
20260830222656 80 268 3.0 3.0 0.00 0.00 0.00 73 1022.5
20260830222152 80 273 4.0 6.0 0.00 0.00 0.00 72 1022.4
20260830221648 81 271 5.0 6.0 0.00 0.00 0.00 70 1022.4
20260830221144 81 279 4.0 6.0 0.00 0.00 0.00 71 1022.7
20260830220639 81 251 2.0 2.0 0.00 0.00 0.00 70 1022.4
20260830220138 81 261 2.0 2.0 0.00 0.00 0.00 71 1022.5
20260830215637 81 261 2.0 2.0 0.00 0.00 0.00 71 1022.7
20260830215131 80 250 3.0 3.0 0.00 0.00 0.00 71 1022.7
20260830214627 80 247 1.0 1.0 0.00 0.00 0.00 72 1022.8
20260830214121 81 239 2.0 2.0 0.00 0.00 0.00 71 1022.8
20260830213621 81 287 3.0 3.0 0.00 0.00 0.00 70 1022.6
20260830213116 81 302 3.0 3.0 0.00 0.00 0.00 72 1022.5
20260830212612 81 324 1.0 2.0 0.00 0.00 0.00 68 1022.6
20260830212107 81 308 3.0 3.0 0.00 0.00 0.00 70 1022.6
20260830211601 81 261 3.0 3.0 0.00 0.00 0.00 72 1022.5
20260830211055 81 247 4.0 6.0 0.00 0.00 0.00 70 1022.3
20260830210551 81 284 4.0 5.0 0.00 0.00 0.00 70 1022.3
20260830210050 81 296 3.0 5.0 0.00 0.00 0.00 70 1022.6
20260830205548 81 294 3.0 5.0 0.00 0.00 0.00 70 1022.6
20260830205043 80 289 5.0 6.0 0.00 0.00 0.00 71 1022.8
20260830204542 81 263 4.0 5.0 0.00 0.00 0.00 73 1022.5
20260830204042 81 302 3.0 3.0 0.00 0.00 0.00 72 1022.7
20260830203539 81 298 7.0 8.0 0.00 0.00 0.00 71 1022.8
20260830203038 79 276 5.0 6.0 0.00 0.00 0.00 75 1023.0
20260830202533 80 252 5.0 6.0 0.00 0.00 0.00 75 1022.7
20260830202029 82 279 5.0 7.0 0.00 0.00 0.00 71 1022.5
20260830201528 81 272 6.0 7.0 0.00 0.00 0.00 73 1022.6
20260830201023 81 239 3.0 5.0 0.00 0.00 0.00 73 1022.7
20260830200518 80 7 6.0 7.0 0.00 0.00 0.00 71 1022.8
20260830200018 81 308 6.0 7.0 0.00 0.00 0.00 70 1023.0
20260830195513 81 320 8.0 9.0 0.00 0.00 0.00 70 1022.7
20260830195011 80 277 4.0 5.0 0.00 0.00 0.00 72 1023.0
20260830194510 82 270 6.0 8.0 0.00 0.00 0.00 70 1023.2
20260830194005 82 259 5.0 7.0 0.00 0.00 0.00 68 1023.1
20260830193504 82 260 5.0 6.0 0.00 0.00 0.00 69 1023.1
20260830192959 81 274 6.0 10.0 0.00 0.00 0.00 71 1023.2
20260830192455 80 283 7.0 9.0 0.00 0.00 0.00 70 1023.2
20260830191950 82 300 5.0 6.0 0.00 0.00 0.00 72 1023.6
20260830191450 81 7 5.0 6.0 0.00 0.00 0.00 70 1023.0
20260830190945 81 265 4.0 5.0 0.00 0.00 0.00 73 1023.6
20260830190441 81 283 4.0 6.0 0.00 0.00 0.00 71 1023.5
20260830185940 80 303 3.0 3.0 0.00 0.00 0.00 72 1023.5
20260830185435 80 315 5.0 7.0 0.00 0.00 0.00 71 1023.4
20260830184930 81 35 5.0 7.0 0.00 0.00 0.00 69 1023.6
20260830184429 81 265 5.0 7.0 0.00 0.00 0.00 68 1023.7
20260830183930 80 272 11.0 14.0 0.00 0.00 0.00 66 1023.7
20260830183424 80 286 6.0 7.0 0.00 0.00 0.00 68 1024.0
20260830182920 81 319 4.0 8.0 0.00 0.00 0.00 64 1024.0
20260830182415 81 271 7.0 8.0 0.00 0.00 0.00 65 1023.9
20260830181911 81 276 6.0 7.0 0.00 0.00 0.00 65 1024.0
20260830181407 81 276 10.0 14.0 0.00 0.00 0.00 63 1023.9
20260830180901 81 0 5.0 6.0 0.00 0.00 0.00 67 1023.9
20260830180400 82 261 4.0 6.0 0.00 0.00 0.00 64 1024.2
20260830175900 81 278 4.0 5.0 0.00 0.00 0.00 68 1024.0
20260830175359 80 17 7.0 8.0 0.00 0.00 0.00 67 1024.3
20260830174854 80 250 8.0 9.0 0.00 0.00 0.00 67 1024.5
20260830174350 81 354 10.0 13.0 0.00 0.00 0.00 68 1024.5
20260830173845 81 315 4.0 6.0 0.00 0.00 0.00 69 1024.3
20260830173340 80 297 3.0 5.0 0.00 0.00 0.00 71 1024.3
20260830172837 79 292 5.0 7.0 0.00 0.00 0.00 72 1024.5
20260830172333 79 292 7.0 9.0 0.00 0.00 0.00 73 1024.3
20260830171828 80 277 6.0 7.0 0.00 0.00 0.00 72 1024.4
20260830171324 80 295 6.0 8.0 0.00 0.00 0.00 71 1024.1
20260830170819 80 333 11.0 13.0 0.00 0.00 0.00 71 1024.3
20260830170318 80 345 10.0 13.0 0.00 0.00 0.00 70 1024.3
20260830165817 80 254 1.0 2.0 0.00 0.00 0.00 73 1024.3
20260830165313 80 283 7.0 8.0 0.00 0.00 0.00 73 1024.3
20260830164809 81 304 7.0 7.0 0.00 0.00 0.00 72 1024.7
20260830164305 80 317 4.0 5.0 0.00 0.00 0.00 74 1024.7
20260830163801 80 350 8.0 9.0 0.00 0.00 0.00 72 1024.5
20260830163256 79 325 8.0 10.0 0.00 0.00 0.00 71 1024.5
20260830162751 80 261 3.0 5.0 0.00 0.00 0.00 70 1024.7
20260830162247 78 338 11.0 11.0 0.00 0.00 0.00 73 1024.7
20260830161743 79 43 8.0 8.0 0.00 0.00 0.00 72 1024.5
20260830161241 79 354 9.0 10.0 0.00 0.00 0.00 73 1024.5
20260830160737 79 313 4.0 5.0 0.00 0.00 0.00 73 1024.5
20260830160232 79 320 6.0 7.0 0.00 0.00 0.00 75 1024.5
20260830155728 78 252 2.0 2.0 0.00 0.00 0.00 74 1024.4
20260830155224 78 250 2.0 2.0 0.00 0.00 0.00 73 1024.5
20260830154719 78 262 3.0 3.0 0.00 0.00 0.00 77 1024.7
20260830154214 78 76 6.0 7.0 0.00 0.00 0.00 77 1024.9
20260830153711 78 245 2.0 2.0 0.00 0.00 0.00 76 1024.7
20260830153206 77 275 6.0 7.0 0.00 0.00 0.00 79 1024.8
20260830152705 77 253 2.0 2.0 0.00 0.00 0.00 80 1024.7
20260830152204 77 265 3.0 5.0 0.00 0.00 0.00 83 1024.8
20260830151659 77 287 5.0 7.0 0.00 0.00 0.00 82 1024.9
20260830151158 77 314 4.0 5.0 0.00 0.00 0.00 82 1024.8
20260830150654 77 259 5.0 6.0 0.00 0.00 0.00 83 1024.9
20260830150148 77 257 2.0 2.0 0.00 0.00 0.00 83 1025.3
20260830145648 77 3 5.0 7.0 0.00 0.00 0.00 85 1024.7
20260830145143 77 249 2.0 3.0 0.00 0.00 0.00 83 1024.8
20260830144638 77 213 3.0 3.0 0.00 0.00 0.00 85 1025.0
20260830144134 76 287 6.0 6.0 0.00 0.00 0.00 85 1024.9
20260830143630 75 236 2.0 2.0 0.00 0.00 0.00 85 1024.8
20260830143127 75 346 5.0 6.0 0.00 0.00 0.00 87 1025.0
20260830142624 75 253 0.0 0.0 0.00 0.00 0.00 89 1024.7
20260830142118 73 254 0.0 0.0 0.00 0.00 0.00 89 1024.4
20260830141614 73 247 0.0 0.0 0.00 0.00 0.00 90 1024.5
20260830141108 72 245 0.0 0.0 0.00 0.00 0.00 90 1024.5
20260830140603 71 246 0.0 0.0 0.00 0.00 0.00 91 1024.5
20260830140059 71 247 0.0 0.0 0.00 0.00 0.00 92 1024.3
20260830135559 70 247 0.0 0.0 0.00 0.00 0.00 92 1024.5
20260830135054 70 247 0.0 0.0 0.00 0.00 0.00 93 1024.4
20260830134550 69 247 0.0 0.0 0.00 0.00 0.00 94 1024.4
20260830134050 68 247 0.0 0.0 0.00 0.00 0.00 95 1024.5
20260830133545 68 247 0.0 0.0 0.00 0.00 0.00 97 1024.8
20260830133040 67 247 0.0 0.0 0.00 0.00 0.00 98 1024.8
20260830132536 66 247 0.0 0.0 0.00 0.00 0.00 98 1024.8
20260830132031 65 248 0.0 0.0 0.00 0.00 0.00 99 1024.9
20260830131530 65 248 0.0 0.0 0.00 0.00 0.00 99 1025.0
20260830131025 64 247 0.0 0.0 0.00 0.00 0.00 99 1024.9
20260830130520 63 249 0.0 0.0 0.00 0.00 0.00 99 1025.0
20260830130016 63 248 0.0 0.0 0.00 0.00 0.00 99 1024.9
20260830125510 62 246 0.0 0.0 0.00 0.00 0.00 99 1024.8
20260830125009 61 246 0.0 0.0 0.00 0.00 0.00 99 1024.9
20260830124503 61 246 0.0 0.0 0.00 0.00 0.00 99 1025.1
20260830123959 60 246 0.0 0.0 0.00 0.00 0.00 99 1025.1
20260830123456 60 246 0.0 0.0 0.00 0.00 0.00 99 1025.0
20260830122954 60 246 0.0 0.0 0.00 0.00 0.00 99 1025.1
20260830122453 59 246 0.0 0.0 0.00 0.00 0.00 99 1025.2
20260830121948 59 246 0.0 0.0 0.00 0.00 0.00 99 1025.1
20260830121443 59 246 0.0 0.0 0.00 0.00 0.00 99 1025.1
20260830120938 58 246 0.0 0.0 0.00 0.00 0.00 99 1025.4
20260830120433 58 246 0.0 0.0 0.00 0.00 0.00 99 1025.1
20260830115930 58 246 0.0 0.0 0.00 0.00 0.00 99 1025.2
20260830115426 58 246 0.0 0.0 0.00 0.00 0.00 99 1025.0
20260830114921 58 246 0.0 0.0 0.00 0.00 0.00 99 1025.2
20260830114417 58 246 0.0 0.0 0.00 0.00 0.00 99 1025.2
20260830113917 58 246 0.0 0.0 0.00 0.00 0.00 99 1025.1
20260830113412 57 245 0.0 0.0 0.00 0.00 0.00 99 1025.3
20260830112907 57 246 0.0 0.0 0.00 0.00 0.00 99 1025.1
20260830112403 58 245 0.0 0.0 0.00 0.00 0.00 99 1025.0
20260830111900 57 243 0.0 0.0 0.00 0.00 0.00 99 1025.1
20260830111354 57 243 0.0 0.0 0.00 0.00 0.00 99 1025.2
20260830110850 57 241 0.0 0.0 0.00 0.00 0.00 99 1025.0
20260830110346 57 241 0.0 0.0 0.00 0.00 0.00 99 1025.1
20260830105844 57 241 0.0 0.0 0.00 0.00 0.00 99 1025.1
20260830105341 57 241 0.0 0.0 0.00 0.00 0.00 99 1025.0
20260830104837 56 239 0.0 0.0 0.00 0.00 0.00 99 1025.2
20260830104334 56 239 0.0 0.0 0.00 0.00 0.00 99 1025.0
20260830103832 56 239 0.0 0.0 0.00 0.00 0.00 99 1025.1
20260830103329 56 239 0.0 0.0 0.00 0.00 0.00 99 1025.0
20260830102826 56 239 0.0 0.0 0.00 0.00 0.00 99 1025.0
20260830102322 56 239 0.0 0.0 0.00 0.00 0.00 99 1025.0
20260830101818 56 239 0.0 0.0 0.00 0.00 0.00 99 1025.0
20260830101314 56 239 0.0 0.0 0.00 0.00 0.00 99 1024.7
20260830100813 56 239 0.0 0.0 0.00 0.00 0.00 99 1024.8
20260830100307 56 239 0.0 0.0 0.00 0.00 0.00 99 1024.9
20260830095806 56 239 0.0 0.0 0.00 0.00 0.00 99 1024.7
20260830095306 56 239 0.0 0.0 0.00 0.00 0.00 99 1025.1
20260830094758 56 239 0.0 0.0 0.00 0.00 0.00 99 1024.9
20260830094254 56 239 0.0 0.0 0.00 0.00 0.00 99 1024.9
20260830093750 56 239 0.0 0.0 0.00 0.00 0.00 99 1024.9
20260830093245 56 239 0.0 0.0 0.00 0.00 0.00 99 1024.9
20260830092744 56 239 0.0 0.0 0.00 0.00 0.00 99 1025.0
20260830092242 56 239 0.0 0.0 0.00 0.00 0.00 99 1025.0
20260830091738 56 239 0.0 0.0 0.00 0.00 0.00 99 1025.2
20260830091237 56 239 0.0 0.0 0.00 0.00 0.00 99 1025.0
20260830090736 56 239 0.0 0.0 0.00 0.00 0.00 99 1025.0
20260830090232 56 239 0.0 0.0 0.00 0.00 0.00 99 1024.9
20260830085731 56 239 0.0 0.0 0.00 0.00 0.00 99 1024.9
20260830085227 56 239 0.0 0.0 0.00 0.00 0.00 99 1025.0
20260830084722 56 239 0.0 0.0 0.00 0.00 0.00 99 1025.0
20260830084217 56 239 0.0 0.0 0.00 0.00 0.00 99 1025.0
20260830083712 56 239 0.0 0.0 0.00 0.00 0.00 99 1025.0
20260830083208 56 239 0.0 0.0 0.00 0.00 0.00 99 1024.8
20260830082702 56 239 0.0 0.0 0.00 0.00 0.00 99 1025.2
20260830082158 56 239 0.0 0.0 0.00 0.00 0.00 99 1025.2
20260830081653 56 239 0.0 0.0 0.00 0.00 0.00 99 1025.2
20260830081152 56 239 0.0 0.0 0.00 0.00 0.00 99 1025.2
20260830080647 57 239 0.0 0.0 0.00 0.00 0.00 99 1025.3
20260830080143 56 239 0.0 0.0 0.00 0.00 0.00 99 1025.2
20260830075642 57 239 0.0 0.0 0.00 0.00 0.00 99 1025.0
20260830075138 56 239 0.0 0.0 0.00 0.00 0.00 99 1025.2
20260830074633 56 239 0.0 0.0 0.00 0.00 0.00 99 1025.4
20260830074129 56 239 0.0 0.0 0.00 0.00 0.00 99 1025.5
20260830073625 56 239 0.0 0.0 0.00 0.00 0.00 99 1025.4
20260830073120 57 239 0.0 0.0 0.00 0.00 0.00 99 1025.4
20260830072615 57 239 0.0 0.0 0.00 0.00 0.00 99 1025.3
20260830072115 57 239 0.0 0.0 0.00 0.00 0.00 99 1025.5
20260830071611 57 239 0.0 0.0 0.00 0.00 0.00 99 1025.3
20260830071108 57 239 0.0 0.0 0.00 0.00 0.00 99 1025.4
20260830070604 57 239 0.0 0.0 0.00 0.00 0.00 99 1025.4
20260830070058 56 239 0.0 0.0 0.00 0.00 0.00 99 1025.4
20260830065557 57 239 0.0 0.0 0.00 0.00 0.00 99 1025.3
20260830065056 57 239 0.0 0.0 0.00 0.00 0.00 99 1025.3
20260830064550 57 239 0.0 0.0 0.00 0.00 0.00 99 1025.5
20260830064046 57 239 0.0 0.0 0.00 0.00 0.00 99 1025.3
20260830063546 57 239 0.0 0.0 0.00 0.00 0.00 99 1025.4
20260830063045 57 239 0.0 0.0 0.00 0.00 0.00 99 1025.0
20260830062544 57 239 0.0 0.0 0.00 0.00 0.00 99 1025.5
20260830062040 57 239 0.0 0.0 0.00 0.00 0.00 99 1025.4
20260830061534 57 239 0.0 0.0 0.00 0.00 0.00 99 1025.2
20260830061030 57 239 0.0 0.0 0.00 0.00 0.00 99 1025.5
20260830060526 57 239 0.0 0.0 0.00 0.00 0.00 99 1025.6
20260830060023 57 239 0.0 0.0 0.00 0.00 0.00 99 1025.5
20260830055518 57 239 0.0 0.0 0.00 0.00 0.00 99 1025.3
20260830055014 57 239 0.0 0.0 0.00 0.00 0.00 99 1025.6
20260830054509 58 239 0.0 0.0 0.00 0.00 0.00 99 1025.5
20260830054004 58 239 0.0 0.0 0.00 0.00 0.00 99 1025.5
20260830053500 58 239 0.0 0.0 0.00 0.00 0.00 99 1025.5
20260830052959 58 239 0.0 0.0 0.00 0.00 0.00 99 1025.7
20260830052454 58 239 0.0 0.0 0.00 0.00 0.00 99 1025.4
20260830051949 58 239 0.0 0.0 0.00 0.00 0.00 99 1025.5
20260830051449 58 239 0.0 0.0 0.00 0.00 0.00 99 1025.7
20260830050944 58 239 0.0 0.0 0.00 0.00 0.00 99 1025.5
20260830050439 58 239 0.0 0.0 0.00 0.00 0.00 99 1025.4
20260830045938 59 239 0.0 0.0 0.00 0.00 0.00 99 1025.8
20260830045433 58 239 0.0 0.0 0.00 0.00 0.00 99 1025.5
20260830044931 59 239 0.0 0.0 0.00 0.00 0.00 99 1025.9
20260830044428 59 239 0.0 0.0 0.00 0.00 0.00 99 1025.6
20260830043922 59 239 0.0 0.0 0.00 0.00 0.00 99 1025.7
20260830043417 59 239 0.0 0.0 0.00 0.00 0.00 99 1025.6
20260830042915 59 240 0.0 0.0 0.00 0.00 0.00 99 1025.7
20260830042410 59 240 0.0 0.0 0.00 0.00 0.00 99 1025.7
20260830041909 60 240 0.0 0.0 0.00 0.00 0.00 99 1025.6
20260830041408 60 240 0.0 0.0 0.00 0.00 0.00 99 1025.7
20260830040903 60 240 0.0 0.0 0.00 0.00 0.00 98 1025.6
20260830040359 60 240 0.0 0.0 0.00 0.00 0.00 98 1025.6
20260830035858 60 240 0.0 0.0 0.00 0.00 0.00 97 1025.5
20260830035357 60 240 0.0 0.0 0.00 0.00 0.00 96 1025.6
20260830034852 60 240 0.0 0.0 0.00 0.00 0.00 96 1025.6
20260830034348 61 240 0.0 0.0 0.00 0.00 0.00 96 1025.8
20260830033843 61 240 0.0 0.0 0.00 0.00 0.00 96 1025.5
20260830033337 61 239 0.0 0.0 0.00 0.00 0.00 96 1025.7
20260830032833 61 241 0.0 0.0 0.00 0.00 0.00 96 1025.4
20260830032327 61 240 0.0 0.0 0.00 0.00 0.00 97 1025.5
20260830031822 61 240 0.0 0.0 0.00 0.00 0.00 97 1025.6
20260830031318 62 242 0.0 0.0 0.00 0.00 0.00 96 1025.4
20260830030813 62 240 0.0 0.0 0.00 0.00 0.00 96 1025.4
20260830030309 62 241 0.0 0.0 0.00 0.00 0.00 95 1025.5
20260830025808 62 243 0.0 0.0 0.00 0.00 0.00 95 1025.4
20260830025305 63 241 0.0 0.0 0.00 0.00 0.00 93 1025.4
20260830024801 62 245 0.0 0.0 0.00 0.00 0.00 91 1025.4
20260830024256 62 241 0.0 0.0 0.00 0.00 0.00 91 1025.4
20260830023754 62 264 0.0 0.0 0.00 0.00 0.00 91 1025.6
20260830023253 63 239 0.0 0.0 0.00 0.00 0.00 91 1025.6
20260830022753 63 244 1.0 2.0 0.00 0.00 0.00 91 1025.5
20260830022247 63 224 0.0 1.0 0.00 0.00 0.00 89 1025.5
20260830021742 64 256 1.0 1.0 0.00 0.00 0.00 88 1025.6
20260830021238 64 246 0.0 0.0 0.00 0.00 0.00 87 1025.5
20260830020737 65 235 0.0 0.0 0.00 0.00 0.00 85 1025.5
20260830020232 65 235 1.0 1.0 0.00 0.00 0.00 84 1025.6
20260830015731 65 221 1.0 1.0 0.00 0.00 0.00 85 1025.5
20260830015227 65 235 0.0 0.0 0.00 0.00 0.00 85 1025.4
20260830014722 65 269 2.0 2.0 0.00 0.00 0.00 82 1025.5
20260830014218 65 209 2.0 2.0 0.00 0.00 0.00 87 1025.6
20260830013714 65 251 0.0 0.0 0.00 0.00 0.00 86 1025.4
20260830013208 65 237 0.0 0.0 0.00 0.00 0.00 86 1025.6
20260830012703 65 238 0.0 0.0 0.00 0.00 0.00 85 1025.5
20260830012200 65 243 0.0 0.0 0.00 0.00 0.00 85 1025.4
20260830011654 66 242 0.0 0.0 0.00 0.00 0.00 86 1025.3
20260830011149 66 230 0.0 1.0 0.00 0.00 0.00 85 1025.3
20260830010645 66 248 0.0 0.0 0.00 0.00 0.00 85 1025.2
20260830010139 66 244 0.0 0.0 0.00 0.00 0.00 85 1025.1
20260830005638 66 237 0.0 0.0 0.00 0.00 0.00 86 1025.2
20260830005137 66 251 0.0 0.0 0.00 0.00 0.00 85 1025.0
20260830004631 66 237 0.0 0.0 0.00 0.00 0.00 85 1024.9
20260830004126 66 237 0.0 0.0 0.00 0.00 0.00 86 1025.2
20260830003621 67 250 0.0 0.0 0.00 0.00 0.00 86 1024.8
20260830003116 68 248 0.0 0.0 0.00 0.00 0.00 82 1025.1
20260830002614 68 236 0.0 0.0 0.00 0.00 0.00 81 1025.0